BIOMASS

Last updated on Mon Sep 21 2026 00:02:46 GMT+0000 (Coordinated Universal Time)

1 63772U 25090A 26263.42599156 .00000700 00000+0 13185-3 0 9998 2 63772 98.0759 89.3745 0001451 88.9661 271.1710 14.67534433 74651
UTC large
Height (km)
Speed (km/s)
/
Latitude / Longitude
Inclination (degrees)
Orbital Period (minutes)
Azimuth
Elevation
Range (km)
Doppler Factor

Next 0 passes for location: London (51.5072 / 0.1276)

No passes found over London.
BIOMASS